星链-11436 (STARLINK-11436)

导读

STARLINK-11436是美国SpaceX公司星链(Starlink)卫星互联网项目的卫星,于2025年2月4日发射,属于星链全球覆盖阶段部署任务。星链旨在为全球偏远地区提供高速低延迟宽带互联网服务,STARLINK-11436是星链低轨星座的组成部分,它延续了星链成熟技术方案,助力完善全球覆盖网络,进一步扩大星链服务范围,支撑手机直连等新功能落地,巩固星链全球低轨卫星星座规模优势。

基本信息
目录编号:
62887
目录名称:
STARLINK-11436
国际标识:
2025-024J
轨道中心:
EARTH
卫星名称:
星链-11436
卫星全名:
星链-11436 (STARLINK-11436)
卫星状态:
在轨 (已飞行584 天)
发射日期:
2025-02-04 UTC
国别 :
美国 (US)
星等 :
--
该卫星已列入 空间交会检测服务 Space Conjunction Data Service (SCDS) ,当前飞行风险评估等级: 无高风险
轨道信息
数据来源 国际轨道数据 AOE轨道数据
星历时间 2026-09-09T10:27:53+0800
2天前
查看轨道信息
2026-09-09T22:00:00+0800
1天前
查看轨道信息
半长轴 6734.821km 6734.801km
偏心率 0.000328 0.0002447
轨道倾角 43.002° 43.004°
近地点辐角 261.852° 261.944°
升交点赤经 155.820° 152.926°
平近点角 98.198° 299.299°
近地点 354.474km 355.015km
远地点 358.894km 358.313km
周期 91.675分钟 91.674分钟
每日圈数 15.70774 15.707812
详细信息
固有亮度:
5
最大亮度:
2.5
卫星平台:
Starlink V1.0
覆盖范围:
全球
运营商:
太空探索技术公司
运营商所在国:
美国
制造商(研发单位):
太空探索技术公司
制造商所在国:
美国
使用方式:
暂无
卫星简介
Starlink 计划是 SpaceX 推出的全球卫星互联网项目,通过发射低轨道卫星,为全球尤其是偏远地区提供高速、低延迟的互联网服务。自 2019 年起,Starlink 已部署数千颗卫星,旨在缩小全球数字鸿沟,推动互联网普及。该项目还为军事、航空等行业提供通信支持,带来广泛经济效益。
2D轨道图
3D轨道图
轨道高度分析图
轨道倾角分析图
轨道综合分析图
查看轨道综合分析图
与全量物体交会距离演化趋势
与全量物体交会风险概率演化趋势